Weather History for KSUE - January, 2015

Change the Weather History Date:

Wednesday, January 14, 2015

  Actual Average Record
Temperature  
Mean Temperature 12 °F -  
Max Temperature 19 °F 25 °F 44 °F (1932)
Min Temperature 5 °F 9 °F -23 °F (1929)
Degree Days  
Heating Degree Days 53    
Moisture  
Dew Point 7 °F    
Average Humidity 77    
Maximum Humidity 85    
Minimum Humidity 68    
Precipitation  
Precipitation 0.00 in - - ()
Sea Level Pressure  
Sea Level Pressure 30.22 in    
Wind  
Wind Speed 9 mph (WSW)    
Max Wind Speed 13 mph    
Max Gust Speed -    
Visibility 10 miles    
Events      
Averages and records for this station are not official NWS values.
T = Trace of Precipitation, MM = Missing Value Source: NWS Daily Summary

Daily Weather History Graph

Daily Weather History Graph

Search for Another Location

Airport or City:

Trip Planner

Search our weather history database for the weather conditions in past years. The results will help you decide how hot, cold, wet, or windy it might be!

Date:

Astronomy

Jan. 14, 2015 Rise Set
Actual Time 7:24 AM CST 4:33 PM CST
Civil Twilight 6:51 AM CST 5:06 PM CST
Nautical Twilight 6:15 AM CST 5:42 PM CST
Astronomical Twilight 5:40 AM CST 6:17 PM CST
Moon 1:10 AM CST (1/14) 11:53 AM CST (1/14)
Length of Visible Light 10h 14m
Length of Day
9h 08m
Last Quarter, 37% of the Moon is Illuminated
Jan 14
Last Quarter
Jan 20
New
Jan 26
First Quarter
Feb 3
Full
Feb 11
Last Quarter

Hourly Weather History & Observations

Time (CST) Temp. Windchill Dew Point Humidity Pressure Visibility Wind Dir Wind Speed Gust Speed Precip Events Conditions
12:15 AM 8.6 °F -4.7 °F 3.2 °F 79% 30.39 in 10.0 mi SW 9.2 mph - N/A   Clear
12:35 AM 8.6 °F -4.7 °F 3.2 °F 79% 30.38 in 10.0 mi SW 9.2 mph - N/A   Mostly Cloudy
12:55 AM 8.6 °F -4.7 °F 3.2 °F 79% 30.37 in 10.0 mi SW 9.2 mph - N/A   Overcast
1:15 AM 8.6 °F -4.7 °F 1.4 °F 73% 30.36 in 10.0 mi SW 9.2 mph - N/A   Scattered Clouds
1:35 AM 8.6 °F -3.7 °F 1.4 °F 73% 30.36 in 10.0 mi SW 8.1 mph - N/A   Clear
1:55 AM 8.6 °F -3.7 °F 1.4 °F 73% 30.36 in 10.0 mi SW 8.1 mph - N/A   Clear
2:15 AM 6.8 °F -5.9 °F 1.4 °F 79% 30.35 in 10.0 mi SW 8.1 mph - N/A   Clear
2:35 AM 6.8 °F -5.9 °F 1.4 °F 79% 30.34 in 10.0 mi SSW 8.1 mph - N/A   Clear
2:55 AM 6.8 °F -4.8 °F 1.4 °F 79% 30.32 in 10.0 mi SSW 6.9 mph - N/A   Clear
3:15 AM 6.8 °F -4.8 °F 1.4 °F 79% 30.32 in 10.0 mi SW 6.9 mph - N/A   Clear
3:35 AM 6.8 °F -5.9 °F 1.4 °F 79% 30.31 in 10.0 mi SW 8.1 mph - N/A   Clear
3:55 AM 6.8 °F -5.9 °F 1.4 °F 79% 30.30 in 10.0 mi SSW 8.1 mph - N/A   Clear
4:15 AM 6.8 °F -4.8 °F 1.4 °F 79% 30.29 in 10.0 mi SW 6.9 mph - N/A   Clear
4:35 AM 5.0 °F -8.1 °F 1.4 °F 85% 30.27 in 10.0 mi SSW 8.1 mph - N/A   Scattered Clouds
4:55 AM 6.8 °F -5.9 °F 1.4 °F 79% 30.27 in 10.0 mi SW 8.1 mph - N/A   Mostly Cloudy
5:15 AM 6.8 °F -5.9 °F 1.4 °F 79% 30.26 in 10.0 mi SSW 8.1 mph - N/A   Overcast
5:35 AM 8.6 °F -3.7 °F 1.4 °F 73% 30.26 in 10.0 mi SW 8.1 mph - N/A   Overcast
5:55 AM 8.6 °F -5.5 °F 3.2 °F 79% 30.25 in 10.0 mi SW 10.4 mph - N/A   Overcast
6:15 AM 8.6 °F -4.7 °F 3.2 °F 79% 30.25 in 10.0 mi SW 9.2 mph - N/A   Overcast
6:35 AM 10.4 °F -1.5 °F 5.0 °F 79% 30.25 in 10.0 mi SW 8.1 mph - N/A   Overcast
6:55 AM 10.4 °F -1.5 °F 3.2 °F 73% 30.25 in 10.0 mi SW 8.1 mph - N/A   Overcast
7:15 AM 10.4 °F -2.4 °F 5.0 °F 79% 30.25 in 10.0 mi WSW 9.2 mph - N/A   Overcast
7:35 AM 10.4 °F -4.1 °F 5.0 °F 79% 30.25 in 10.0 mi WSW 11.5 mph - N/A   Overcast
7:55 AM 10.4 °F -4.8 °F 5.0 °F 79% 30.25 in 10.0 mi WSW 12.7 mph - N/A   Overcast
8:15 AM 12.2 °F -1.0 °F 6.8 °F 79% 30.25 in 10.0 mi WSW 10.4 mph - N/A   Overcast
8:35 AM 10.4 °F -2.4 °F 5.0 °F 79% 30.25 in 10.0 mi WSW 9.2 mph - N/A   Overcast
8:55 AM 12.2 °F -1.0 °F 6.8 °F 79% 30.25 in 7.0 mi WSW 10.4 mph - N/A   Overcast
9:15 AM 12.2 °F -1.0 °F 6.8 °F 79% 30.25 in 5.0 mi WSW 10.4 mph - N/A   Overcast
9:35 AM 12.2 °F -1.8 °F 6.8 °F 79% 30.26 in 5.0 mi WSW 11.5 mph - N/A   Overcast
9:55 AM 12.2 °F -1.0 °F 6.8 °F 79% 30.26 in 4.0 mi WSW 10.4 mph - N/A   Overcast
10:15 AM 12.2 °F -0.2 °F 6.8 °F 79% 30.26 in 10.0 mi WSW 9.2 mph - N/A   Overcast
10:35 AM 12.2 °F -2.5 °F 6.8 °F 79% 30.25 in 10.0 mi WSW 12.7 mph - N/A   Overcast
10:55 AM 12.2 °F -0.2 °F 6.8 °F 79% 30.24 in 10.0 mi West 9.2 mph - N/A   Overcast
11:15 AM 14.0 °F 1.2 °F 8.6 °F 79% 30.23 in 10.0 mi WSW 10.4 mph - N/A   Overcast
11:35 AM 14.0 °F 0.5 °F 6.8 °F 73% 30.22 in 10.0 mi West 11.5 mph - N/A   Overcast
11:55 AM 14.0 °F 2.0 °F 6.8 °F 73% 30.21 in 10.0 mi WSW 9.2 mph - N/A   Overcast
12:15 PM 14.0 °F 1.2 °F 8.6 °F 79% 30.21 in 10.0 mi West 10.4 mph - N/A   Overcast
12:35 PM 14.0 °F 2.0 °F 8.6 °F 79% 30.20 in 10.0 mi West 9.2 mph - N/A   Overcast
12:55 PM 14.0 °F 2.0 °F 8.6 °F 79% 30.20 in 10.0 mi West 9.2 mph - N/A   Overcast
1:15 PM 15.8 °F 3.4 °F 8.6 °F 73% 30.19 in 10.0 mi West 10.4 mph - N/A   Overcast
1:35 PM 15.8 °F 5.1 °F 8.6 °F 73% 30.19 in 10.0 mi West 8.1 mph - N/A   Overcast
1:55 PM 15.8 °F 4.2 °F 8.6 °F 73% 30.18 in 10.0 mi West 9.2 mph - N/A   Overcast
2:15 PM 15.8 °F 4.2 °F 8.6 °F 73% 30.18 in 10.0 mi West 9.2 mph - N/A   Overcast
2:35 PM 15.8 °F 5.1 °F 8.6 °F 73% 30.18 in 10.0 mi West 8.1 mph - N/A   Overcast
2:55 PM 15.8 °F 5.1 °F 8.6 °F 73% 30.17 in 10.0 mi West 8.1 mph - N/A   Overcast
3:15 PM 15.8 °F 6.1 °F 8.6 °F 73% 30.18 in 10.0 mi West 6.9 mph - N/A   Overcast
3:35 PM 15.8 °F 7.2 °F 10.4 °F 79% 30.18 in 10.0 mi WSW 5.8 mph - N/A   Overcast
3:55 PM 15.8 °F 5.1 °F 10.4 °F 79% 30.18 in 10.0 mi WSW 8.1 mph - N/A   Overcast
4:15 PM 15.8 °F 6.1 °F 10.4 °F 79% 30.18 in 10.0 mi West 6.9 mph - N/A   Overcast
4:35 PM 15.8 °F 5.1 °F 10.4 °F 79% 30.17 in 10.0 mi WSW 8.1 mph - N/A   Overcast
4:55 PM 15.8 °F 7.2 °F 10.4 °F 79% 30.17 in 10.0 mi WSW 5.8 mph - N/A   Overcast
5:15 PM 15.8 °F 8.6 °F 10.4 °F 79% 30.17 in 10.0 mi WSW 4.6 mph - N/A   Overcast
5:35 PM 15.8 °F 7.2 °F 10.4 °F 79% 30.16 in 10.0 mi WSW 5.8 mph - N/A   Overcast
5:55 PM 17.6 °F 9.3 °F 10.4 °F 73% 30.16 in 10.0 mi WSW 5.8 mph - N/A   Overcast
6:15 PM 17.6 °F 8.2 °F 10.4 °F 73% 30.16 in 10.0 mi WSW 6.9 mph - N/A   Overcast
6:35 PM 17.6 °F 9.3 °F 10.4 °F 73% 30.16 in 10.0 mi WSW 5.8 mph - N/A   Overcast
6:55 PM 17.6 °F 9.3 °F 10.4 °F 73% 30.16 in 10.0 mi WSW 5.8 mph - N/A   Overcast
7:15 PM 17.6 °F 9.3 °F 10.4 °F 73% 30.15 in 10.0 mi WSW 5.8 mph - N/A   Overcast
7:35 PM 17.6 °F 9.3 °F 12.2 °F 79% 30.15 in 10.0 mi SW 5.8 mph - N/A   Overcast
7:55 PM 17.6 °F 8.2 °F 12.2 °F 79% 30.15 in 10.0 mi SW 6.9 mph - N/A   Overcast
8:15 PM 17.6 °F 8.2 °F 12.2 °F 79% 30.14 in 10.0 mi WSW 6.9 mph - N/A   Overcast
8:35 PM 17.6 °F 8.2 °F 12.2 °F 79% 30.14 in 10.0 mi WSW 6.9 mph - N/A   Overcast
8:55 PM 17.6 °F 6.4 °F 12.2 °F 79% 30.13 in 10.0 mi WSW 9.2 mph - N/A   Overcast
9:15 PM 17.6 °F 7.3 °F 12.2 °F 79% 30.12 in 10.0 mi SW 8.1 mph - N/A   Overcast
9:35 PM 17.6 °F 7.3 °F 12.2 °F 79% 30.12 in 10.0 mi SW 8.1 mph - N/A   Overcast
9:55 PM 17.6 °F 8.2 °F 12.2 °F 79% 30.12 in 9.0 mi SW 6.9 mph - N/A   Overcast
10:15 PM 19.4 °F 9.5 °F 12.2 °F 74% 30.11 in 9.0 mi SW 8.1 mph - N/A   Overcast
10:35 PM 19.4 °F 10.4 °F 12.2 °F 74% 30.11 in 9.0 mi SW 6.9 mph - N/A   Overcast
10:55 PM 19.4 °F 9.5 °F 12.2 °F 74% 30.10 in 9.0 mi SW 8.1 mph - N/A   Overcast
11:15 PM 19.4 °F 9.5 °F 12.2 °F 74% 30.09 in 10.0 mi SW 8.1 mph - N/A   Overcast
11:35 PM 19.4 °F 9.5 °F 10.4 °F 68% 30.08 in 10.0 mi SW 8.1 mph - N/A   Overcast
11:55 PM 19.4 °F 8.6 °F 12.2 °F 74% 30.06 in 10.0 mi SSW 9.2 mph - N/A   Overcast